Weather in Lodeynoe Pole

Russia / Saint-Petersburg and Leningrad Oblast     60°44′05″N   33°32′55″E
temp.,
°C
wind,
m/s
gust,
m/s
humid.,
%
clouds,
%
prec.,
mm/h
press.,
hPa
HPBL,
m
27 november, sat
sat2700:00−2w279099 0.3 1001532
03:00−6ssw119678 0.3 100314
06:00−9ene119976 0.0 100518
09:00−9ne119886 0.0 100738
12:00−6ne2591100 0.0 1007150
15:00−6ne3888100 0.0 1007275
18:00−6ne41287100 0.0 1005440
21:00−4ene51387100 0.0 1004639
28 november, sun
sun2800:00−5ne61484100 0.0 1002658
03:00−4ne61586100 0.1 1000677
06:00−4ne61491100 0.5 999708
09:00−4ne61389100 0.8 1000775
12:00−5ne51391100 0.6 1000744
15:00−5ne51293100 1.6 1001798
18:00−6ne41193100 1.4 1003795
21:00−6ne3109189 2.3 1006740
29 november, mon
mon2900:00−9nne249382 0.0 100958
03:00−11ne129631 0.0 101050
06:00−12ne2796100 0.0 1011121
09:00−9ene31188100 0.0 1011408
12:00−8e41186100 0.0 1011477
15:00−8ene51287100 0.0 1009511
18:00−8ene61488100 0.0 1005551
21:00−8ene61487100 0.0 1002531
30 november, tue
tue3000:00−7ene61691100 0.4 997592
03:00−6ene61593100 1.6 991665
06:00−6ene61394100 2.0 987615
09:00−6ne51294100 3.3 983624
12:00−6ne41194100 0.9 981581
15:00−6nne4992100 1.3 979593
18:00−7n2796100 0.4 979428
21:00−8nnw3794100 0.7 978279
1 december, wed
wed100:00−8wnw259595 0.3 979265
03:00−11w119882 0.5 98037
06:00−13wsw119984 0.1 98113
09:00−8ssw0296100 0.9 98291
12:00−5sw3993100 0.4 984736
15:00−5sw3894100 1.1 984516
18:00−7ssw41094100 1.0 986534
21:00−8s41096100 1.7 986396